Regional Weather Roundup
Issued by NWS

Home | Current Version | Previous Version | Graphics & Text | Print | Product List | Glossary On
Versions: 1 2 3 4 5 6 7 8 9 10 11 12 13 14 15 16 17 18 19 20 21 22 23 24 25 26 27 28 29 30 31 32 33 34 35 36 37 38 39 40 41 42 43 44 45 46 47 48 49 50
000
ASUS45 KBOI 270910
RWRID
WEATHER ROUNDUP FOR IDAHO
NATIONAL WEATHER SERVICE BOISE ID
200 AM MST THU NOV 27 2014

NOTE: "FAIR" INDICATES FEW OR NO CLOUDS BELOW 12000 FEET
WITH NO SIGNIFICANT WEATHER AND/OR OBSTRUCTIONS TO VISIBILITY

IDZ012-014-271000-
SOUTHWEST IDAHO


CITY           SKY/WX    TMP DP  RH WIND       PRES   REMARKS
BOISE          CLOUDY    45  37  73 CALM      30.16S
CALDWELL       NOT AVBL
MOUNTAIN HOME  CLOUDY    45  41  85 E16       30.16F
$$

IDZ016-017-271000-
SOUTHCENTRAL IDAHO


CITY           SKY/WX    TMP DP  RH WIND       PRES   REMARKS
BURLEY         MOCLDY    48  29  47 SW14      30.21F
JEROME         CLOUDY    41  32  70 NE9       30.21F
TWIN FALLS     CLOUDY    52  28  39 SW6       30.20F
$$

IDZ019>023-271000-
SOUTHEAST IDAHO


CITY           SKY/WX    TMP DP  RH WIND       PRES   REMARKS
IDAHO FALLS    CLOUDY    38  31  76 S5        30.23F WCI  34
POCATELLO      CLEAR     51  27  39 S15       30.24R
REXBURG        CLOUDY    35  30  82 CALM      30.24F
$$

IDZ006-010-011-018-031-032-271000-
CENTRAL IDAHO MOUNTAINS


CITY           SKY/WX    TMP DP  RH WIND       PRES   REMARKS
MCCALL         CLOUDY    32  31  96 CALM      30.17S
HAILEY         CLOUDY    34  28  80 NW8       30.27F WCI  27
STANLEY          N/A     32  23  69 CALM      30.24F
SALMON         CLOUDY    30  28  93 CALM      30.17F VSB 1/4
CHALLIS        CLOUDY    36  27  69 MISG      30.19S
$$

IDZ002-004-006-007-026-271000-
NORTHERN IDAHO


CITY           SKY/WX    TMP DP  RH WIND       PRES   REMARKS
LEWISTON       CLOUDY    46  41  82 SE5       30.00F
LOWELL           N/A     40  39  97 CALM      30.13F
COEUR D`ALENE  CLOUDY    45  41  87 S15       29.93S
MULLAN PASS    CLOUDY    34  33  96 S10G24    29.98F WCI  26
$$



USA.gov is the U.S. government's official web portal to all federal, state and local government web resources and services.